Showing default

GONETS D1 3, 23789

Orbit data source: Space-Track

GONETS D1 3, 23789 is a payload satellite owned by Gonets (CIS) in LEO that was launched on Mon, 19 Feb 1996 UTC via a TSIKLON-3 launch vehicle from the Plesetsk Missile And Space Complex (PKMTR). Payload-class satellites include a variety of spacecraft equipped with specific instruments for various scientific and technological missions. These include communications satellites like Starlink; space stations such as the ISS; scientific satellites like the Hubble; Earth observation satellites from companies like Planet Labs, Umbra, and HawkEye 360; GPS; miniature CubeSats for education and research; and military/defense satellites.

Loading next visibility...
Identifier
23789, 1996-009C
Orbit
LEO
Country
Flag of CISCIS
Related business
Manufacturer
NPO PM
Mission
Non-operational Civil Communications
Bus & Motor
STRELA-3, Unknown motor
Mass
225 kg wet, 225 kg dry
Launch date (UTC)
1996-02-19 (30 years ago)
Launch vehicle
TSIKLON-3
Launch site
Plesetsk Missile And Space Complex (PKMTR)
Object type
Payload
Rocket body
Debris
Shape & HBR
Cyl + 1 Ant, 3.5 m
Radar Cross Section
1.798 m², Medium (>0.1 m² and < 1m²)

Expand to show TLE details & history
Last TLE update: 14 hours ago

TLE from 14 hours ago
0 GONETS D1 3
1 23789U 96009C   25354.93187781  .00000033  00000-0  12706-3 0  9991
2 23789  82.5789  73.6728 0006422 108.8149 251.3640 12.62680237375157
Epoch: 2025-12-20T22:21Z
TLE epoch observation values (Epoch: 2025-12-20T22:21:54.242Z)
Latitude
0.00003°
Longitude
8.4452°
Altitude
1,416.233 km
Speed
7.152 km/s
True Right ascension
04h 54m 41s
True Declination
0° 00' 00"
Sunlit
Object was in full shadow at epoch
Visualization orbit readout
Latitude
Unknown
Longitude
Unknown
Altitude
Unknown
Speed
Unknown
Apparent Right ascension
Unknown
Apparent Declination
Unknown
Sunlit
N/A
Visualization observer readout
Local Sidereal Time
11:13:31
Azimuth
Unknown
Elevation
Unknown
Doppler factor
Unknown
Orbital elements
Apogee altitude
1,414.222 km
Perigee altitude
1,404.22 km
Semi-major axis
7,787.358 km
Eccentricity
0.00064
Inclination
82.5789°
RAAN
73.6728°
Arg. of periapsis
108.8149°
True anomaly
251.29429°
Mean anomaly
251.364°
Eccentric anomaly
251.32914°
Mean motion
3.15833 °/min
Orbital period
113.98 mins
BSTAR
0.00012706
Loading maneuver chart data...
Computing Atmospheric mass density...
Loading historical data...
Loading historical data...
Loading historical data...
Loading historical data...
Loading historical data...
Loading historical data...
Loading historical data...

Documentation

Showing up to 5 results
|